KQA100 HKJK-EGLL

Flight info

Callsign KQA100
Flight time N/A
Altitude 34000
Route ETORU1A LOTAS UM308 RUDOL/N0501F350 UM308 OKNET/N0498F370 UM308 KONET UG650 RASKA/N0496F380 T513 EGMEG/N0498F370 G660 JDW/N0497F380 M686 OTEMO T55 KUNKI P751 METRU DCT TUMBO/N0493F400 DCT VAKSU DCT BAXON DCT ROKIB DCT SUMIR DCT UNIMI L12 MOGTI P66 KPT L608 LIRSU DCT REMBA M624 BUB L608 LOGAN
Aircraft B788/H-SDE1E2E3FGHIJ2J3J4J5M1RWXYZ/LB1D1

Departure

Time 2026-04-30 20:36
Airport Jomo Kenyatta International Airport (HKJK)

Arrival

Time N/A
Airport London Heathrow Airport (EGLL)
Time Latitude Longitude Altitude Speed Heading
2026-04-30 20:20 -1.33169 36.92334 5333 ft 0 kts 56°
2026-04-30 20:26 -1.33207 36.92263 5330 ft 0 kts 342°
2026-04-30 20:31 -1.33185 36.92253 5335 ft 7 kts 333°
2026-04-30 20:32 -1.32964 36.92231 5334 ft 15 kts 18°
2026-04-30 20:32 -1.32795 36.92158 5336 ft 15 kts 253°
2026-04-30 20:33 -1.32855 36.92062 5337 ft 18 kts 234°
2026-04-30 20:33 -1.32997 36.91844 5343 ft 13 kts 274°
2026-04-30 20:33 -1.32977 36.91811 5344 ft 4 kts 314°
2026-04-30 20:34 -1.32905 36.91754 5344 ft 10 kts 326°
2026-04-30 20:34 -1.32753 36.91674 5343 ft 9 kts 15°
2026-04-30 20:35 -1.32705 36.91712 5342 ft 11 kts 52°
2026-04-30 20:35 -1.32580 36.91882 5337 ft 58 kts 54°
2026-04-30 20:35 -1.31664 36.93136 5307 ft 159 kts 54°
2026-04-30 20:36 -1.30934 36.94122 5347 ft 196 kts 51°
2026-04-30 20:36 -1.30102 36.95298 5769 ft 217 kts 55°
2026-04-30 20:36 -1.28121 36.97842 7278 ft 243 kts 54°
2026-04-30 20:37 -1.27054 36.99276 7526 ft 271 kts 55°
2026-04-30 20:37 -1.25922 37.00815 8155 ft 279 kts 54°
2026-04-30 20:37 -1.24753 37.02385 8976 ft 283 kts 54°
2026-04-30 20:37 -1.23563 37.03977 9753 ft 287 kts 54°
2026-04-30 20:38 -1.22268 37.05505 10279 ft 301 kts 38°
2026-04-30 20:38 -1.20297 37.06409 10479 ft 327 kts 10°
2026-04-30 20:38 -1.17938 37.06331 10663 ft 353 kts 347°
2026-04-30 20:39 -1.13145 37.04628 11762 ft 370 kts 339°
2026-04-30 20:39 -1.10709 37.03719 12437 ft 375 kts 342°
2026-04-30 20:39 -1.08236 37.02927 13120 ft 379 kts 343°
2026-04-30 20:40 -1.03151 37.01217 14455 ft 389 kts 341°
2026-04-30 20:40 -1.00617 37.00330 15107 ft 391 kts 341°
2026-04-30 20:40 -0.98012 36.99446 15767 ft 394 kts 342°
2026-04-30 20:41 -0.92783 36.97673 17036 ft 401 kts 341°
2026-04-30 20:41 -0.90125 36.96760 17645 ft 404 kts 341°
2026-04-30 20:41 -0.87445 36.95845 18248 ft 408 kts 341°
2026-04-30 20:41 -0.84770 36.94936 18797 ft 411 kts 341°
2026-04-30 20:42 -0.82043 36.94006 19282 ft 414 kts 341°
2026-04-30 20:42 -0.79300 36.93069 19785 ft 417 kts 341°
2026-04-30 20:42 -0.73752 36.91177 20770 ft 423 kts 341°
2026-04-30 20:43 -0.70956 36.90223 21243 ft 426 kts 341°
2026-04-30 20:43 -0.68135 36.89261 21722 ft 429 kts 341°
2026-04-30 20:43 -0.65296 36.88292 22174 ft 432 kts 341°
2026-04-30 20:44 -0.59589 36.86346 23052 ft 439 kts 341°
2026-04-30 20:44 -0.56682 36.85355 23478 ft 442 kts 341°
2026-04-30 20:44 -0.50804 36.83349 24235 ft 447 kts 340°
2026-04-30 20:45 -0.44910 36.81340 24939 ft 452 kts 341°
2026-04-30 20:45 -0.41919 36.80319 25294 ft 454 kts 341°
2026-04-30 20:45 -0.38919 36.79296 25630 ft 456 kts 341°
2026-04-30 20:46 -0.29857 36.76205 26630 ft 463 kts 341°
2026-04-30 20:46 -0.26790 36.75159 26940 ft 466 kts 341°
2026-04-30 20:47 -0.20601 36.73048 27578 ft 470 kts 341°
2026-04-30 20:47 -0.17538 36.72004 27895 ft 472 kts 341°
2026-04-30 20:48 -0.11280 36.69869 28487 ft 477 kts 341°
2026-04-30 20:48 -0.08122 36.68793 28779 ft 479 kts 341°
2026-04-30 20:48 -0.04957 36.67854 29072 ft 481 kts 350°
2026-04-30 20:48 -0.01639 36.67355 29310 ft 484 kts 352°
2026-04-30 20:49 0.01708 36.66913 29599 ft 485 kts 352°
2026-04-30 20:49 0.05065 36.66467 29873 ft 487 kts 352°
2026-04-30 20:49 0.08434 36.65995 30138 ft 490 kts 352°
2026-04-30 20:50 0.15165 36.65060 30612 ft 493 kts 352°
2026-04-30 20:50 0.18572 36.64598 30832 ft 494 kts 352°
2026-04-30 20:50 0.21978 36.64128 31067 ft 495 kts 352°
2026-04-30 20:50 0.25396 36.63653 31285 ft 497 kts 352°
2026-04-30 20:51 0.28829 36.63180 31483 ft 498 kts 352°
2026-04-30 20:51 0.35736 36.62233 31914 ft 501 kts 352°
2026-04-30 20:51 0.39186 36.61756 32103 ft 502 kts 352°
2026-04-30 20:52 0.42653 36.61278 32290 ft 504 kts 352°
2026-04-30 20:52 0.46129 36.60800 32473 ft 505 kts 352°
2026-04-30 20:52 0.53086 36.59842 32854 ft 507 kts 352°
2026-04-30 20:53 0.56584 36.59360 33120 ft 506 kts 352°
2026-04-30 20:53 0.60078 36.58879 33400 ft 505 kts 352°
2026-04-30 20:53 0.63521 36.58405 33651 ft 505 kts 352°
2026-04-30 20:54 0.70498 36.57444 34108 ft 505 kts 352°
2026-04-30 20:54 0.73976 36.56965 34095 ft 508 kts 352°
2026-04-30 20:55 0.84434 36.55525 34090 ft 502 kts 352°
2026-04-30 20:55 0.91356 36.54572 34083 ft 501 kts 352°
2026-04-30 20:56 1.01688 36.54096 34105 ft 500 kts 12°
2026-04-30 20:57 1.11755 36.56961 34081 ft 501 kts 16°
2026-04-30 20:57 1.18414 36.58919 34072 ft 502 kts 16°
2026-04-30 20:58 1.28491 36.61886 34068 ft 503 kts 16°
2026-04-30 20:58 1.35184 36.63852 34061 ft 504 kts 16°
2026-04-30 20:59 1.45279 36.66825 34054 ft 504 kts 16°
2026-04-30 21:00 1.58752 36.70790 34045 ft 506 kts 16°
2026-04-30 21:01 1.68899 36.73777 34038 ft 506 kts 16°
2026-04-30 21:02 1.79012 36.76754 34037 ft 505 kts 16°
2026-04-30 21:02 1.85753 36.78739 34037 ft 504 kts 16°
2026-04-30 21:03 1.92489 36.80722 34036 ft 504 kts 16°
2026-04-30 21:03 1.99197 36.82698 34035 ft 505 kts 16°
2026-04-30 21:04 2.05963 36.84690 34033 ft 506 kts 16°
2026-04-30 21:04 2.16081 36.87670 34025 ft 508 kts 16°
2026-04-30 21:05 2.22866 36.89669 34024 ft 508 kts 16°
2026-04-30 21:05 2.29627 36.91661 34024 ft 508 kts 16°
2026-04-30 21:06 2.36432 36.93665 34019 ft 509 kts 16°
2026-04-30 21:06 2.43232 36.95669 34017 ft 509 kts 16°
2026-04-30 21:07 2.50036 36.97674 34015 ft 509 kts 16°
2026-04-30 21:07 2.56790 36.99665 34010 ft 509 kts 17°
2026-04-30 21:08 2.63613 37.01676 34003 ft 509 kts 17°
2026-04-30 21:08 2.70424 37.03683 33999 ft 510 kts 17°
2026-04-30 21:09 2.77197 37.05680 33999 ft 510 kts 17°
2026-04-30 21:09 2.84029 37.07695 33997 ft 511 kts 17°
2026-04-30 21:10 2.90853 37.09707 33992 ft 511 kts 17°
2026-04-30 21:10 2.97640 37.11708 33990 ft 511 kts 17°
2026-04-30 21:11 3.04466 37.13722 33984 ft 512 kts 17°
2026-04-30 21:11 3.11315 37.15742 33982 ft 511 kts 17°
2026-04-30 21:12 3.16992 37.17417 33978 ft 511 kts 17°
2026-04-30 21:12 3.24917 37.19756 33973 ft 510 kts 17°
2026-04-30 21:13 3.30584 37.21428 33973 ft 510 kts 17°
2026-04-30 21:13 3.37403 37.23441 33974 ft 509 kts 17°
2026-04-30 21:14 3.44157 37.25435 33973 ft 509 kts 17°
2026-04-30 21:14 3.50951 37.27441 33974 ft 508 kts 17°
2026-04-30 21:15 3.57728 37.29442 33981 ft 507 kts 17°
2026-04-30 21:15 3.64475 37.31434 33984 ft 507 kts 17°
2026-04-30 21:16 3.71261 37.33439 33984 ft 506 kts 17°
2026-04-30 21:16 3.78021 37.35436 33985 ft 506 kts 17°
2026-04-30 21:17 3.84749 37.37424 33989 ft 505 kts 17°
2026-04-30 21:17 3.91500 37.39419 33990 ft 504 kts 17°
2026-04-30 21:18 3.98243 37.41412 33998 ft 504 kts 17°
2026-04-30 21:18 4.04972 37.43238 34005 ft 504 kts 16°
2026-04-30 21:19 4.11755 37.45123 34008 ft 504 kts 15°
2026-04-30 21:19 4.18508 37.46917 34019 ft 504 kts 15°
2026-04-30 21:20 4.25284 37.48771 34022 ft 504 kts 15°
2026-04-30 21:20 4.32066 37.50595 34029 ft 503 kts 15°
2026-04-30 21:21 4.38795 37.52423 34032 ft 504 kts 15°
2026-04-30 21:22 4.48966 37.55174 34042 ft 504 kts 15°
2026-04-30 21:23 4.62489 37.58837 34047 ft 503 kts 15°
2026-04-30 21:23 4.72613 37.61581 34054 ft 502 kts 15°
2026-04-30 21:24 4.79367 37.63412 34059 ft 503 kts 15°
2026-04-30 21:24 4.86097 37.65236 34057 ft 503 kts 15°
2026-04-30 21:25 4.96240 37.67986 34066 ft 502 kts 15°
2026-04-30 21:26 5.06335 37.70725 34067 ft 502 kts 15°